Weather History for KCUT - May, 2012

Change the Weather History Date:

Wednesday, May 30, 2012

  Actual Average Record
Temperature  
Mean Temperature 47 °F 52 °F  
Max Temperature 57 °F 64 °F 81 °F (1958)
Min Temperature 36 °F 41 °F 25 °F (1947)
Degree Days  
Heating Degree Days 18 13  
Month to date heating degree days 456 506  
Since 1 July heating degree days 7404 8156  
Cooling Degree Days 0 0  
Month to date cooling degree days 0 0  
Year to date cooling degree days 0 0  
Moisture  
Dew Point 33 °F    
Average Humidity 60    
Maximum Humidity 85    
Minimum Humidity 35    
Precipitation  
Precipitation 0.00 in 0.12 in 2.53 in (1943)
Month to date precipitation 2.79 3.00  
Year to date precipitation 5.00 6.99  
Sea Level Pressure  
Sea Level Pressure 29.97 in    
Wind  
Wind Speed 6 mph (NNW)    
Max Wind Speed 22 mph    
Max Gust Speed 31 mph    
Visibility 10 miles    
Events      
T = Trace of Precipitation, MM = Missing Value Source: NWS Daily Summary

Daily Weather History Graph

Daily Weather History Graph

Search for Another Location

Airport or City:

Trip Planner

Search our weather history database for the weather conditions in past years. The results will help you decide how hot, cold, wet, or windy it might be!

Date:

Astronomy

May. 30, 2012 Rise Set
Actual Time 5:16 AM MDT 8:28 PM MDT
Civil Twilight 4:41 AM MDT 9:03 PM MDT
Nautical Twilight 3:56 AM MDT 9:48 PM MDT
Astronomical Twilight 3:01 AM MDT 10:43 PM MDT
Moon 3:01 PM MDT (5/30) 1:52 AM MDT (5/30)
Length of Visible Light 16h 21m
Length of Day
15h 11m
Waxing Gibbous, 71% of the Moon is Illuminated
May 30
Waxing Gibbous
Jun 4
Full
Jun 11
Last Quarter
Jun 19
New
Jun 26
First Quarter

Hourly Weather History & Observations

Time (MDT) Temp. Windchill Dew Point Humidity Pressure Visibility Wind Dir Wind Speed Gust Speed Precip Events Conditions
12:53 AM 39.0 °F 35.7 °F 32.0 °F 76% 30.00 in 10.0 mi NNE 4.6 mph - N/A   Partly Cloudy
1:53 AM 39.0 °F 36.8 °F 32.0 °F 76% 29.96 in 10.0 mi NE 3.5 mph - N/A   Partly Cloudy
2:53 AM 37.0 °F 34.5 °F 30.9 °F 79% 29.95 in 10.0 mi NE 3.5 mph - N/A   Overcast
3:53 AM 37.9 °F 34.4 °F 32.0 °F 79% 29.92 in 10.0 mi NE 4.6 mph - N/A   Overcast
4:53 AM 37.0 °F 34.5 °F 32.0 °F 82% 29.90 in 10.0 mi NE 3.5 mph - N/A   Clear
5:53 AM 37.9 °F 35.5 °F 33.1 °F 83% 29.89 in 10.0 mi NE 3.5 mph - N/A   Mostly Cloudy
6:53 AM 39.9 °F 35.8 °F 34.0 °F 79% 29.90 in 10.0 mi East 5.8 mph - N/A   Overcast
7:53 AM 46.0 °F 43.9 °F 36.0 °F 68% 29.89 in 10.0 mi North 4.6 mph - N/A   Clear
8:53 AM 52.0 °F - 37.0 °F 57% 29.87 in 10.0 mi Variable 6.9 mph - N/A   Scattered Clouds
9:53 AM 50.0 °F - 37.9 °F 63% 29.90 in 10.0 mi NNE 10.4 mph 17.3 mph N/A   Overcast
10:02 AM 48.2 °F - 39.2 °F 71% 29.99 in 10.0 mi North 12.7 mph - N/A   Overcast
10:53 AM 46.0 °F 42.5 °F 37.9 °F 73% 29.95 in 10.0 mi Variable 6.9 mph - N/A   Overcast
11:51 AM 48.2 °F - 35.6 °F 62% 30.01 in 10.0 mi NNW 13.8 mph 20.7 mph N/A   Overcast
11:53 AM 48.0 °F - 36.0 °F 63% 29.96 in 10.0 mi North 12.7 mph 21.9 mph N/A   Overcast
12:02 PM 48.2 °F - 35.6 °F 62% 30.03 in 10.0 mi North 9.2 mph 16.1 mph N/A   Overcast
12:32 PM 50.0 °F - 35.6 °F 58% 30.03 in 10.0 mi WNW 5.8 mph 16.1 mph N/A   Overcast
12:53 PM 50.0 °F - 34.0 °F 54% 29.97 in 10.0 mi West 15.0 mph 23.0 mph N/A   Overcast
1:53 PM 50.0 °F - 30.9 °F 48% 29.98 in 10.0 mi WNW 9.2 mph 21.9 mph N/A   Overcast
2:53 PM 55.0 °F - 28.0 °F 35% 29.96 in 10.0 mi WNW 8.1 mph 20.7 mph N/A   Scattered Clouds
3:53 PM 55.0 °F - 28.0 °F 35% 29.97 in 10.0 mi NW 13.8 mph 27.6 mph N/A   Mostly Cloudy
4:53 PM 54.0 °F - 28.9 °F 38% 29.98 in 10.0 mi NW 10.4 mph 16.1 mph N/A   Mostly Cloudy
5:53 PM 55.0 °F - 28.9 °F 37% 29.97 in 10.0 mi Variable 5.8 mph - N/A   Mostly Cloudy
6:53 PM 53.1 °F - 32.0 °F 45% 29.97 in 10.0 mi NNW 3.5 mph - N/A   Mostly Cloudy
7:53 PM 53.1 °F - 32.0 °F 45% 29.97 in 10.0 mi NNW 5.8 mph - N/A   Mostly Cloudy
8:53 PM 48.0 °F - 32.0 °F 54% 29.98 in 10.0 mi Calm Calm - N/A   Mostly Cloudy
9:53 PM 41.0 °F 39.0 °F 33.1 °F 73% 30.04 in 10.0 mi SSW 3.5 mph - N/A   Clear
10:53 PM 43.0 °F 41.3 °F 37.9 °F 82% 30.05 in 10.0 mi SW 3.5 mph - N/A   Overcast
11:53 PM 39.9 °F - 33.1 °F 77% 30.08 in 10.0 mi Calm Calm - N/A   Overcast